Regional Weather Roundup
Issued by NWS

Home | Current Version | Previous Version | Text Only | Print | Product List | Glossary Off
Versions: 1 2 3 4 5 6 7 8 9 10 11 12 13 14 15 16 17 18 19 20 21 22 23 24 25 26 27 28 29 30 31 32 33 34 35 36 37 38 39 40 41 42 43 44 45 46 47 48 49 50

116
ASUS45 KSLC 260610
RWRUT

UTAH REGIONAL WEATHER ROUNDUP
NATIONAL WEATHER SERVICE SALT LAKE CITY UT
1200 AM MDT FRI MAY 26 2017

UTZ001>011-023>025-260700-

NORTHERN UTAH

CITY           SKY/WX    TMP DP  RH WIND       PRES   REMARKS
BRIGHAM CITY   CLEAR     53  33  47 W6        29.76F
HILL AFB       CLEAR     53  28  37 E13       29.77R
LOGAN          CLEAR     46  38  73 CALM      29.78F
OGDEN          CLEAR     53  28  38 S5        29.75S
SALT LAKE CITY CLEAR     59  34  39 E7        29.74S
TOOELE VALLEY  CLEAR     45  37  76 SE5       29.75F
WENDOVER       CLEAR     59  24  26 NE7       29.73F
WEST JORDAN    CLEAR     49  40  70 S3        29.77S

$$

UTZ011>015-024>027-260700-

CENTRAL/NORTHEAST UTAH

CITY           SKY/WX    TMP DP  RH WIND       PRES   REMARKS
PROVO AIRPORT  CLEAR     53  39  59 S9        29.76F
MOAB/CANYONLAN CLOUDY    59  48  67 CALM      29.78R
DELTA          CLEAR     55  36  47 NE8       29.70F
PRICE          CLEAR     50  31  48 NE9       29.82S
ROOSEVELT      PTCLDY    50  32  50 N8        29.84S
VERNAL         CLEAR     52  22  30 N3        29.85R

$$

UTZ013>016-019>022-027-260700-

SOUTHERN UTAH

CITY           SKY/WX    TMP DP  RH WIND       PRES   REMARKS
BRYCE CANYON   PTCLDY    39  32  76 VRB3      29.94R
CEDAR CITY     MOCLDY    64  20  18 S17       29.77R
MILFORD        MOCLDY    68  30  24 SW12G28   29.73R
ST GEORGE      CLEAR     81  16   9 S14       29.63R
HANKSVILLE     CLOUDY    64  36  34 SE8       29.77S
BLANDING       MOCLDY    60  33  36 NE8       29.93R

$$

REGIONAL REPORTS     COLORADO/ARIZONA

CITY           SKY/WX    TMP DP  RH WIND       PRES   REMARKS
CRAIG, CO      CLOUDY    46  41  82 E9        29.92S
GRAND JUNCTION CLOUDY    62  39  42 W12       29.86R
RIFLE, CO      CLOUDY    55  43  63 NE3       29.90R
MONTROSE, CO   CLOUDY    56  40  55 E10       29.93R
CORTEZ, CO     CLOUDY    67  24  19 SW17G25   29.86R
COLORADO CITY    N/A     59  23  25 CALM      29.82R
PAGE, AZ       CLEAR     77  17  10 SW8       29.74R
GRAND CANYON   CLEAR     56  10  16 SW14      29.96S
KINGMAN, AZ    CLEAR     74  23  15 SW21      29.76R
FLAGSTAFF, AZ  CLEAR     56   9  15 SW14      29.99F

$$

REGIONAL REPORTS    NEVADA/IDAHO/WYOMING

CITY           SKY/WX    TMP DP  RH WIND       PRES   REMARKS
LAS VEGAS, NV  PTCLDY    82  16   8 S14G21    29.59R
ELY, NY        PTCLDY    41  20  43 VRB3      29.78S
ELKO, NV       MOCLDY    57  27  31 NE12      29.72R
POCATELLO, ID  CLEAR     44  31  60 E3        29.78F
BURLEY, ID     CLOUDY    54  40  59 SW6       29.79R
EVANSTON, WY   CLOUDY    43  24  47 E7        29.88F
ROCK SPRINGS,  CLEAR     44  30  57 E16       29.91S
KEMMERER, WY     N/A     41  25  52 CALM      29.91S

$$




USA.gov is the U.S. government's official web portal to all federal, state and local government web resources and services.